User: anonymous   Login
Location: Sunrise Point
(46.9200°N, 121.5900°W)
Time: 07:56:48
(UTC-07:00)
Language:

Cosmos 2058 - Orbit

View from above orbital plane
View from above orbital plane
View from above satellite
View from above satellite

Ground track
Ground track

The orbit data is extracted from the following two-line orbital elements,

1 20465U 90010A   16242.33202242  .00000488  00000-0  39737-4 0  9993
2 20465  82.4923 168.4211 0015133 191.8704 168.2164 14.97272143441662
Epoch (UTC): 29 August 2016 07:58:06
Eccentricity: 0.0015133
inclination: 82.4923°
perigee height: 565 km
apogee height: 586 km
right ascension of ascending node: 168.4211°
argument of perigee: 191.8704°
revolutions per day: 14.97272143
mean anomaly at epoch: 168.2164°
orbit number at epoch: 44166

The dashed part of the orbit path shows where the satellite is in the earth's shadow,  

DLR